Time,TemperatureF,DewpointF,PressureIn,WindDirection,WindDirectionDegrees,WindSpeedMPH,WindSpeedGustMPH,Humidity,HourlyPrecipIn,Conditions,Clouds,dailyrainin,SoftwareType,DateUTC
2013-03-12 00:10:00,48.1,-99.9,30.13,NE,55,2.0,-999.0,0,-99.99,,,0.00,weatherlink.com 1.10,2013-03-12 07:10:00,
2013-03-12 00:25:00,48.1,-99.9,30.13,ENE,70,4.0,-999.0,0,-99.99,,,0.00,weatherlink.com 1.10,2013-03-12 07:25:00,
2013-03-12 00:40:00,47.8,-99.9,30.13,ENE,64,2.0,-999.0,0,-99.99,,,0.00,weatherlink.com 1.10,2013-03-12 07:40:00,
2013-03-12 00:55:00,47.7,-99.9,30.13,NE,54,0.0,-999.0,0,-99.99,,,0.00,weatherlink.com 1.10,2013-03-12 07:55:00,
2013-03-12 01:10:00,47.8,-99.9,30.12,ENE,57,4.0,-999.0,0,-99.99,,,0.00,weatherlink.com 1.10,2013-03-12 08:10:00,
2013-03-12 01:25:00,47.8,-99.9,30.12,ENE,64,4.0,-999.0,0,-99.99,,,0.00,weatherlink.com 1.10,2013-03-12 08:25:00,
2013-03-12 01:40:00,47.4,-99.9,30.12,ENE,65,5.0,-999.0,0,-99.99,,,0.00,weatherlink.com 1.10,2013-03-12 08:40:00,
2013-03-12 01:55:00,47.1,-99.9,30.12,ENE,65,2.0,-999.0,0,-99.99,,,0.00,weatherlink.com 1.10,2013-03-12 08:55:00,
2013-03-12 02:10:00,46.8,-99.9,30.12,NE,50,0.0,-999.0,0,-99.99,,,0.00,weatherlink.com 1.10,2013-03-12 09:10:00,
2013-03-12 02:25:00,46.6,-99.9,30.13,ENE,64,5.0,-999.0,0,-99.99,,,0.00,weatherlink.com 1.10,2013-03-12 09:25:00,
2013-03-12 02:40:00,46.5,-99.9,30.12,NE,48,1.0,-999.0,0,-99.99,,,0.00,weatherlink.com 1.10,2013-03-12 09:40:00,
2013-03-12 02:55:00,46.3,-99.9,30.11,ENE,58,3.0,-999.0,0,-99.99,,,0.00,weatherlink.com 1.10,2013-03-12 09:55:00,
2013-03-12 03:10:00,45.7,-99.9,30.11,ENE,63,2.0,-999.0,0,-99.99,,,0.00,weatherlink.com 1.10,2013-03-12 10:10:00,
2013-03-12 03:25:00,45.4,-99.9,30.11,ENE,67,5.0,-999.0,0,-99.99,,,0.00,weatherlink.com 1.10,2013-03-12 10:25:00,
2013-03-12 03:40:00,45.4,-99.9,30.11,NE,40,6.0,-999.0,0,-99.99,,,0.00,weatherlink.com 1.10,2013-03-12 10:40:00,
2013-03-12 03:55:00,45.1,-99.9,30.10,ENE,63,6.0,-999.0,0,-99.99,,,0.00,weatherlink.com 1.10,2013-03-12 10:55:00,
2013-03-12 04:10:00,45.1,-99.9,30.11,NE,45,6.0,-999.0,0,-99.99,,,0.00,weatherlink.com 1.10,2013-03-12 11:10:00,
2013-03-12 04:25:00,45.1,-99.9,30.11,NE,54,6.0,-999.0,0,-99.99,,,0.00,weatherlink.com 1.10,2013-03-12 11:25:00,
2013-03-12 04:40:00,45.6,-99.9,30.11,ENE,57,5.0,-999.0,0,-99.99,,,0.00,weatherlink.com 1.10,2013-03-12 11:40:00,
2013-03-12 04:55:00,45.1,-99.9,30.11,ENE,59,10.0,-999.0,0,-99.99,,,0.00,weatherlink.com 1.10,2013-03-12 11:55:00,
2013-03-12 05:10:00,45.0,-99.9,30.11,NE,46,7.0,-999.0,0,-99.99,,,0.00,weatherlink.com 1.10,2013-03-12 12:10:00,
2013-03-12 05:25:00,44.2,-99.9,30.11,NE,47,5.0,-999.0,0,-99.99,,,0.00,weatherlink.com 1.10,2013-03-12 12:25:00,
2013-03-12 05:40:00,43.3,-99.9,30.11,ENE,61,5.0,-999.0,0,-99.99,,,0.00,weatherlink.com 1.10,2013-03-12 12:40:00,
2013-03-12 05:55:00,43.7,-99.9,30.11,NE,46,4.0,-999.0,0,-99.99,,,0.00,weatherlink.com 1.10,2013-03-12 12:55:00,
2013-03-12 06:10:00,43.4,-99.9,30.10,ENE,59,6.0,-999.0,0,-99.99,,,0.00,weatherlink.com 1.10,2013-03-12 13:10:00,
2013-03-12 06:25:00,43.1,-99.9,30.10,NE,54,5.0,-999.0,0,-99.99,,,0.00,weatherlink.com 1.10,2013-03-12 13:25:00,
2013-03-12 06:40:00,43.0,-99.9,30.10,ENE,60,6.0,-999.0,0,-99.99,,,0.00,weatherlink.com 1.10,2013-03-12 13:40:00,
2013-03-12 06:55:00,42.6,-99.9,30.11,ENE,63,4.0,-999.0,0,-99.99,,,0.00,weatherlink.com 1.10,2013-03-12 13:55:00,
2013-03-12 07:10:00,41.8,-99.9,30.11,NE,45,5.0,-999.0,0,-99.99,,,0.00,weatherlink.com 1.10,2013-03-12 14:10:00,
2013-03-12 07:25:00,42.4,-99.9,30.12,NE,54,4.0,-999.0,0,-99.99,,,0.00,weatherlink.com 1.10,2013-03-12 14:25:00,
2013-03-12 07:40:00,42.1,-99.9,30.13,ENE,63,4.0,-999.0,0,-99.99,,,0.00,weatherlink.com 1.10,2013-03-12 14:40:00,
2013-03-12 07:55:00,42.0,-99.9,30.14,NE,55,6.0,-999.0,0,-99.99,,,0.00,weatherlink.com 1.10,2013-03-12 14:55:00,
2013-03-12 08:10:00,42.7,-99.9,30.13,ENE,58,6.0,-999.0,0,-99.99,,,0.00,weatherlink.com 1.10,2013-03-12 15:10:00,
2013-03-12 08:25:00,42.4,-99.9,30.13,NE,49,7.0,-999.0,0,-99.99,,,0.00,weatherlink.com 1.10,2013-03-12 15:25:00,
2013-03-12 08:40:00,43.0,-99.9,30.14,ENE,65,6.0,-999.0,0,-99.99,,,0.00,weatherlink.com 1.10,2013-03-12 15:40:00,
2013-03-12 08:55:00,44.4,-99.9,30.15,NE,53,2.0,-999.0,0,-99.99,,,0.00,weatherlink.com 1.10,2013-03-12 15:55:00,
2013-03-12 09:10:00,45.8,-99.9,30.14,ENE,74,3.0,-999.0,0,-99.99,,,0.00,weatherlink.com 1.10,2013-03-12 16:10:00,
2013-03-12 09:25:00,47.2,-99.9,30.15,ENE,72,2.0,-999.0,0,-99.99,,,0.00,weatherlink.com 1.10,2013-03-12 16:25:00,
2013-03-12 09:40:00,47.7,-99.9,30.14,ENE,61,4.0,-999.0,0,-99.99,,,0.00,weatherlink.com 1.10,2013-03-12 16:40:00,
2013-03-12 09:55:00,51.0,-99.9,30.15,WSW,237,0.0,-999.0,0,-99.99,,,0.00,weatherlink.com 1.10,2013-03-12 16:55:00,
2013-03-12 10:10:00,53.9,-99.9,30.16,WNW,288,3.0,-999.0,0,-99.99,,,0.00,weatherlink.com 1.10,2013-03-12 17:10:00,
2013-03-12 10:40:00,53.8,-99.9,30.16,SW,225,0.0,-999.0,0,-99.99,,,0.00,weatherlink.com 1.10,2013-03-12 17:40:00,
2013-03-12 10:55:00,53.4,-99.9,30.17,SSW,210,1.0,-999.0,0,-99.99,,,0.00,weatherlink.com 1.10,2013-03-12 17:55:00,
2013-03-12 11:10:00,55.0,-99.9,30.16,SSW,200,0.0,-999.0,0,-99.99,,,0.00,weatherlink.com 1.10,2013-03-12 18:10:00,
2013-03-12 11:25:00,57.1,-99.9,30.15,SW,227,3.0,-999.0,0,-99.99,,,0.00,weatherlink.com 1.10,2013-03-12 18:25:00,
2013-03-12 11:40:00,59.8,-16.0,30.17,West,274,2.0,-999.0,4,-99.99,,,0.00,weatherlink.com 1.10,2013-03-12 18:40:00,
2013-03-12 11:55:00,59.6,8.0,30.16,WSW,246,3.0,-999.0,13,-99.99,,,0.00,weatherlink.com 1.10,2013-03-12 18:55:00,
2013-03-12 12:10:00,60.0,-12.0,30.16,WSW,251,4.0,-999.0,5,-99.99,,,0.00,weatherlink.com 1.10,2013-03-12 19:10:00,
2013-03-12 12:25:00,60.8,-1.0,30.16,West,269,1.0,-999.0,8,-99.99,,,0.00,weatherlink.com 1.10,2013-03-12 19:25:00,
2013-03-12 12:40:00,60.5,17.0,30.17,SSW,207,3.0,-999.0,18,-99.99,,,0.00,weatherlink.com 1.10,2013-03-12 19:40:00,
2013-03-12 12:55:00,60.0,-99.9,30.16,WSW,237,2.0,-999.0,0,-99.99,,,0.00,weatherlink.com 1.10,2013-03-12 19:55:00,
2013-03-12 13:10:00,62.0,2.0,30.15,SW,233,3.0,-999.0,9,-99.99,,,0.00,weatherlink.com 1.10,2013-03-12 20:10:00,
2013-03-12 13:25:00,61.4,-1.0,30.15,SSW,206,3.0,-999.0,8,-99.99,,,0.00,weatherlink.com 1.10,2013-03-12 20:25:00,
2013-03-12 13:40:00,61.5,6.0,30.14,West,271,2.0,-999.0,11,-99.99,,,0.00,weatherlink.com 1.10,2013-03-12 20:40:00,
2013-03-12 13:55:00,63.1,20.0,30.14,SSW,210,6.0,-999.0,19,-99.99,,,0.00,weatherlink.com 1.10,2013-03-12 20:55:00,
2013-03-12 14:10:00,62.2,15.0,30.14,WSW,248,6.0,-999.0,16,-99.99,,,0.00,weatherlink.com 1.10,2013-03-12 21:10:00,
2013-03-12 14:25:00,63.0,17.0,30.13,SW,226,5.0,-999.0,17,-99.99,,,0.00,weatherlink.com 1.10,2013-03-12 21:25:00,
2013-03-12 14:40:00,63.8,18.0,30.12,SSW,205,4.0,-999.0,17,-99.99,,,0.00,weatherlink.com 1.10,2013-03-12 21:40:00,
2013-03-12 14:55:00,64.5,29.0,30.11,SW,225,0.0,-999.0,26,-99.99,,,0.00,weatherlink.com 1.10,2013-03-12 21:55:00,
2013-03-12 15:10:00,64.1,21.0,30.12,West,275,2.0,-999.0,19,-99.99,,,0.00,weatherlink.com 1.10,2013-03-12 22:10:00,
2013-03-12 15:25:00,63.6,24.0,30.11,SW,234,5.0,-999.0,22,-99.99,,,0.00,weatherlink.com 1.10,2013-03-12 22:25:00,
2013-03-12 15:40:00,63.9,21.0,30.11,SSW,213,4.0,-999.0,19,-99.99,,,0.00,weatherlink.com 1.10,2013-03-12 22:40:00,
2013-03-12 15:55:00,62.5,9.0,30.10,SW,232,2.0,-999.0,12,-99.99,,,0.00,weatherlink.com 1.10,2013-03-12 22:55:00,
2013-03-12 16:10:00,62.6,16.0,30.10,SW,218,3.0,-999.0,16,-99.99,,,0.00,weatherlink.com 1.10,2013-03-12 23:10:00,
2013-03-12 16:25:00,62.3,9.0,30.10,WNW,285,3.0,-999.0,12,-99.99,,,0.00,weatherlink.com 1.10,2013-03-12 23:25:00,
2013-03-12 16:40:00,61.4,2.0,30.10,WSW,258,2.0,-999.0,9,-99.99,,,0.00,weatherlink.com 1.10,2013-03-12 23:40:00,
2013-03-12 16:55:00,60.8,-29.0,30.10,WSW,250,5.0,-999.0,2,-99.99,,,0.00,weatherlink.com 1.10,2013-03-12 23:55:00,
2013-03-12 17:10:00,60.5,-21.0,30.11,WNW,290,5.0,-999.0,3,-99.99,,,0.00,weatherlink.com 1.10,2013-03-13 00:10:00,
2013-03-12 17:25:00,59.0,-99.9,30.10,WNW,288,5.0,-999.0,0,-99.99,,,0.00,weatherlink.com 1.10,2013-03-13 00:25:00,
2013-03-12 17:40:00,58.2,-99.9,30.10,SW,235,2.0,-999.0,0,-99.99,,,0.00,weatherlink.com 1.10,2013-03-13 00:40:00,
2013-03-12 17:55:00,57.9,-99.9,30.10,SW,217,1.0,-999.0,0,-99.99,,,0.00,weatherlink.com 1.10,2013-03-13 00:55:00,
2013-03-12 18:10:00,57.6,-99.9,30.09,SW,235,1.0,-999.0,0,-99.99,,,0.00,weatherlink.com 1.10,2013-03-13 01:10:00,
2013-03-12 18:25:00,57.3,-99.9,30.09,West,272,0.0,-999.0,0,-99.99,,,0.00,weatherlink.com 1.10,2013-03-13 01:25:00,
2013-03-12 18:40:00,56.4,-99.9,30.09,West,261,0.0,-999.0,0,-99.99,,,0.00,weatherlink.com 1.10,2013-03-13 01:40:00,
2013-03-12 18:55:00,55.7,-99.9,30.09,West,261,0.0,-999.0,0,-99.99,,,0.00,weatherlink.com 1.10,2013-03-13 01:55:00,
2013-03-12 19:10:00,54.5,-99.9,30.09,South,171,0.0,-999.0,0,-99.99,,,0.00,weatherlink.com 1.10,2013-03-13 02:10:00,
2013-03-12 19:25:00,53.7,-99.9,30.10,South,171,0.0,-999.0,0,-99.99,,,0.00,weatherlink.com 1.10,2013-03-13 02:25:00,
2013-03-12 19:40:00,52.6,-99.9,30.10,NE,55,0.0,-999.0,0,-99.99,,,0.00,weatherlink.com 1.10,2013-03-13 02:40:00,
2013-03-12 19:55:00,51.7,-99.9,30.10,NE,50,2.0,-999.0,0,-99.99,,,0.00,weatherlink.com 1.10,2013-03-13 02:55:00,
2013-03-12 20:10:00,51.2,-99.9,30.11,NE,49,2.0,-999.0,0,-99.99,,,0.00,weatherlink.com 1.10,2013-03-13 03:10:00,
2013-03-12 20:25:00,51.1,-99.9,30.11,ENE,57,5.0,-999.0,0,-99.99,,,0.00,weatherlink.com 1.10,2013-03-13 03:25:00,
2013-03-12 20:40:00,50.6,-99.9,30.10,ENE,66,3.0,-999.0,0,-99.99,,,0.00,weatherlink.com 1.10,2013-03-13 03:40:00,
2013-03-12 20:55:00,50.2,-99.9,30.10,ENE,63,0.0,-999.0,0,-99.99,,,0.00,weatherlink.com 1.10,2013-03-13 03:55:00,
2013-03-12 21:10:00,49.7,-99.9,30.11,ENE,62,2.0,-999.0,0,-99.99,,,0.00,weatherlink.com 1.10,2013-03-13 04:10:00,
2013-03-12 21:25:00,49.5,-99.9,30.10,ENE,60,6.0,-999.0,0,-99.99,,,0.00,weatherlink.com 1.10,2013-03-13 04:25:00,
2013-03-12 21:40:00,49.0,-99.9,30.10,ENE,59,2.0,-999.0,0,-99.99,,,0.00,weatherlink.com 1.10,2013-03-13 04:40:00,
2013-03-12 21:55:00,48.8,-99.9,30.11,ENE,57,5.0,-999.0,0,-99.99,,,0.00,weatherlink.com 1.10,2013-03-13 04:55:00,
2013-03-12 22:10:00,48.4,-99.9,30.11,NE,53,5.0,-999.0,0,-99.99,,,0.00,weatherlink.com 1.10,2013-03-13 05:10:00,
2013-03-12 22:25:00,48.1,-99.9,30.11,NE,51,4.0,-999.0,0,-99.99,,,0.00,weatherlink.com 1.10,2013-03-13 05:25:00,
2013-03-12 22:40:00,47.8,-99.9,30.12,ENE,57,4.0,-999.0,0,-99.99,,,0.00,weatherlink.com 1.10,2013-03-13 05:40:00,
2013-03-12 22:55:00,47.7,-99.9,30.12,NE,36,2.0,-999.0,0,-99.99,,,0.00,weatherlink.com 1.10,2013-03-13 05:55:00,
2013-03-12 23:10:00,47.7,-99.9,30.12,NE,55,3.0,-999.0,0,-99.99,,,0.00,weatherlink.com 1.10,2013-03-13 06:10:00,
2013-03-12 23:25:00,48.0,-99.9,30.11,ENE,69,6.0,-999.0,0,-99.99,,,0.00,weatherlink.com 1.10,2013-03-13 06:25:00,
2013-03-12 23:40:00,47.9,-99.9,30.12,NNE,17,3.0,-999.0,0,-99.99,,,0.00,weatherlink.com 1.10,2013-03-13 06:40:00,
2013-03-12 23:55:00,47.4,-99.9,30.12,NE,48,1.0,-999.0,0,-99.99,,,0.00,weatherlink.com 1.10,2013-03-13 06:55:00,